Temp
-14 -14 -14 -14 -14 -14 -13 -13 -14 -15 -14 -13 -12 -12 -11 -11 -10 -10 -10 -10 -10 -10 -10 -11 -11 -12 -12 -13 -13 -13 -12 -12 -11 -11 -11 -11 -10 -10 -10 -10 -9 -9 -10
-15 -15 -15 -14 -14 -14 -14 -14 -14 -13 -13 -13 -12 -12 -12 -11 -11 -11 -11 -11 -11 -11 -11 -11 -12 -13 -13 -13 -13 -13 -13 -12 -12 -12 -12 -11 -9 -10 -12 -11 -10 -10 -11
-15 -15 -15 -15 -15 -14 -14 -14 -13 -13 -14 -14 -14 -14 -14 -13 -13 -13 -13 -13 -13 -13 -12 -12 -13 -14 -14 -14 -14 -13 -13 -13 -13 -13 -12 -12 -12 -12 -14 -12 -12 -11 -11
-15 -15 -14 -15 -14 -14 -14 -14 -14 -14 -14 -15 -15 -15 -15 -15 -15 -14 -14 -14 -14 -14 -14 -13 -14 -14 -14 -14 -14 -14 -14 -13 -13 -13 -13 -12 -13 -12 -13 -14 -13 -12 -12
-16 -15 -15 -15 -14 -14 -14 -14 -15 -15 -15 -15 -15 -15 -15 -16 -15 -16 -16 -16 -15 -15 -15 -15 -14 -14 -15 -15 -14 -14 -14 -14 -14 -13 -14 -13 -13 -13 -13 -13 -13 -12 -11
-16 -15 -16 -16 -16 -15 -15 -15 -15 -15 -15 -15 -15 -15 -16 -16 -17 -17 -17 -17 -17 -17 -17 -16 -15 -15 -15 -15 -15 -14 -14 -14 -14 -13 -14 -14 -13 -14 -13 -14 -13 -13 -13
-17 -16 -16 -16 -15 -15 -15 -15 -15 -15 -15 -15 -16 -16 -16 -17 -18 -18 -18 -18 -18 -18 -18 -18 -17 -16 -16 -16 -15 -14 -14 -15 -15 -14 -15 -14 -14 -13 -14 -14 -13 -13 -13
-16 -16 -15 -15 -15 -15 -15 -15 -15 -15 -15 -15 -16 -16 -17 -17 -19 -19 -19 -18 -19 -19 -19 -18 -18 -17 -16 -17 -16 -15 -15 -15 -15 -15 -15 -14 -14 -14 -15 -15 -15 -14 -13
-15 -15 -14 -14 -14 -15 -15 -14 -14 -14 -15 -16 -16 -16 -16 -18 -19 -20 -19 -19 -19 -19 -19 -19 -18 -17 -17 -16 -16 -16 -16 -16 -15 -15 -16 -15 -15 -15 -16 -15 -16 -15 -14
-14 -14 -14 -15 -15 -14 -14 -14 -13 -14 -14 -15 -16 -16 -17 -18 -19 -20 -19 -19 -18 -19 -19 -19 -18 -18 -17 -15 -16 -16 -16 -16 -16 -16 -16 -16 -16 -16 -16 -16 -15 -15 -15
-15 -15 -14 -15 -15 -15 -14 -14 -13 -14 -15 -15 -16 -16 -16 -17 -18 -19 -19 -18 -18 -19 -19 -19 -18 -17 -17 -17 -16 -16 -16 -16 -17 -17 -16 -16 -16 -16 -16 -15 -15 -15 -16
-14 -14 -15 -15 -15 -15 -15 -14 -15 -15 -15 -15 -16 -16 -16 -17 -17 -18 -18 -18 -18 -19 -18 -18 -17 -17 -17 -16 -17 -16 -17 -17 -17 -17 -17 -16 -16 -16 -16 -16 -16 -16 -16
-14 -14 -15 -15 -14 -15 -15 -15 -15 -15 -15 -15 -16 -16 -16 -17 -17 -17 -17 -18 -18 -18 -18 -18 -17 -16 -17 -16 -17 -17 -17 -17 -17 -17 -17 -16 -16 -16 -16 -16 -16 -16 -16
-14 -14 -15 -15 -15 -15 -15 -16 -16 -16 -16 -16 -16 -16 -16 -16 -17 -17 -17 -17 -17 -17 -18 -18 -18 -18 -17 -17 -17 -17 -17 -17 -17 -17 -16 -16 -16 -16 -16 -17 -16 -16 -16
-14 -14 -14 -15 -15 -15 -16 -16 -17 -17 -17 -16 -16 -16 -16 -16 -17 -17 -17 -17 -17 -17 -18 -17 -17 -17 -17 -17 -17 -17 -17 -17 -17 -17 -16 -17 -17 -17 -17 -17 -17 -17 -16
-14 -14 -14 -15 -16 -16 -16 -16 -16 -18 -17 -17 -17 -17 -16 -16 -16 -17 -16 -16 -17 -17 -18 -18 -18 -17 -18 -17 -17 -17 -18 -18 -17 -17 -17 -17 -17 -17 -17 -17 -17 -16 -16
-14 -15 -16 -16 -16 -15 -15 -16 -17 -17 -17 -17 -17 -17 -17 -17 -16 -17 -17 -16 -17 -17 -18 -18 -18 -17 -17 -17 -17 -17 -18 -18 -18 -17 -17 -17 -17 -17 -17 -17 -16 -16 -16
-14 -15 -16 -16 -16 -16 -16 -16 -17 -17 -17 -17 -17 -17 -17 -17 -17 -17 -17 -17 -17 -17 -18 -18 -18 -17 -17 -17 -17 -17 -17 -17 -17 -17 -17 -17 -17 -17 -17 -17 -16 -16 -15
-14 -15 -16 -16 -16 -16 -16 -17 -17 -17 -18 -18 -18 -17 -17 -17 -17 -17 -17 -17 -17 -17 -17 -17 -18 -18 -18 -17 -17 -17 -17 -17 -17 -17 -17 -17 -17 -17 -16 -16 -16 -16 -15
-15 -15 -16 -16 -16 -16 -16 -17 -17 -18 -18 -18 -18 -18 -17 -17 -16 -17 -18 -17 -17 -17 -17 -18 -18 -18 -18 -18 -17 -17 -18 -18 -17 -18 -17 -17 -17 -16 -16 -16 -16 -16 -15
-15 -16 -16 -16 -16 -16 -17 -18 -18 -18 -18 -18 -18 -18 -17 -17 -17 -17 -18 -17 -17 -17 -18 -18 -18 -18 -18 -18 -18 -18 -18 -17 -18 -18 -17 -17 -16 -16 -16 -16 -16 -16 -16
-15 -15 -16 -16 -16 -16 -17 -18 -18 -18 -18 -18 -18 -17 -18 -18 -17 -17 -17 -17 -16 -17 -17 -18 -18 -18 -18 -18 -18 -18 -19 -18 -18 -18 -17 -17 -17 -16 -16 -16 -16 -16 -16
-15 -15 -15 -16 -16 -16 -17 -17 -18 -18 -18 -18 -18 -18 -17 -17 -17 -17 -17 -16 -16 -16 -17 -17 -18 -18 -18 -18 -18 -18 -18 -18 -18 -18 -18 -17 -17 -16 -16 -16 -16 -16 -15
-14 -15 -15 -15 -16 -16 -16 -17 -17 -18 -18 -18 -17 -18 -17 -17 -17 -16 -16 -17 -17 -17 -17 -17 -18 -18 -18 -18 -19 -18 -18 -18 -18 -18 -18 -17 -17 -17 -17 -17 -16 -16 -16
-14 -15 -16 -15 -15 -16 -16 -17 -17 -17 -17 -17 -16 -16 -17 -17 -17 -16 -16 -16 -17 -17 -17 -17 -17 -18 -18 -18 -18 -18 -18 -18 -18 -18 -18 -17 -17 -17 -17 -16 -16 -16 -14
-14 -15 -15 -16 -16 -16 -16 -16 -16 -16 -16 -16 -16 -16 -17 -17 -17 -16 -16 -16 -16 -16 -17 -17 -17 -17 -18 -18 -18 -18 -18 -18 -18 -18 -18 -17 -17 -17 -16 -16 -16 -16 -14
Height
5703 5703 5699 5697 5693 5692 5690 5690 5689 5687 5686 5682 5679 5678 5678 5678 5677 5677 5677 5676 5676 5678 5680 5681 5684 5686 5690 5692 5694 5698 5701 5701 5703 5706 5707 5710 5711 5714 5715 5721 5728 5726 5731
5687 5683 5682 5680 5679 5678 5677 5674 5672 5671 5668 5663 5660 5658 5656 5656 5656 5656 5657 5657 5658 5658 5659 5664 5667 5669 5672 5676 5680 5683 5687 5689 5690 5692 5692 5694 5696 5694 5699 5710 5714 5717 5724
5669 5667 5666 5665 5663 5661 5659 5655 5652 5649 5648 5644 5641 5637 5636 5636 5636 5636 5635 5637 5638 5640 5642 5645 5648 5652 5656 5660 5665 5669 5672 5676 5679 5681 5682 5683 5685 5688 5692 5695 5701 5707 5710
5654 5651 5649 5646 5644 5641 5639 5636 5632 5629 5627 5624 5621 5619 5616 5615 5615 5615 5616 5617 5619 5622 5625 5628 5629 5634 5640 5645 5650 5653 5658 5664 5668 5671 5673 5674 5677 5680 5682 5686 5691 5696 5701
5636 5633 5631 5627 5624 5621 5619 5616 5613 5610 5607 5605 5602 5600 5599 5595 5591 5592 5592 5597 5599 5602 5606 5611 5614 5618 5623 5629 5634 5640 5645 5651 5657 5660 5662 5665 5669 5672 5675 5678 5683 5686 5689
5622 5619 5614 5610 5607 5604 5601 5597 5593 5591 5588 5586 5583 5580 5578 5576 5572 5568 5570 5574 5579 5582 5588 5593 5598 5604 5608 5614 5621 5626 5632 5639 5644 5647 5650 5654 5659 5663 5665 5670 5675 5677 5679
5605 5602 5598 5594 5590 5587 5584 5580 5577 5573 5569 5564 5561 5558 5556 5552 5550 5547 5549 5553 5560 5566 5571 5578 5583 5589 5595 5601 5608 5613 5619 5625 5632 5633 5638 5644 5649 5652 5655 5659 5663 5667 5670
5591 5587 5582 5579 5575 5570 5565 5560 5555 5551 5548 5545 5542 5537 5534 5531 5526 5527 5529 5534 5543 5552 5558 5563 5570 5576 5582 5589 5596 5602 5608 5613 5621 5626 5626 5633 5637 5642 5645 5647 5650 5655 5659
5575 5571 5568 5564 5558 5551 5544 5536 5530 5526 5525 5524 5522 5519 5515 5511 5507 5508 5512 5519 5528 5538 5545 5551 5558 5564 5570 5577 5584 5592 5596 5604 5610 5615 5618 5623 5627 5631 5635 5639 5643 5646 5649
5561 5557 5552 5546 5540 5535 5528 5520 5514 5509 5506 5505 5505 5504 5500 5496 5496 5498 5501 5507 5516 5526 5534 5541 5547 5554 5558 5565 5572 5581 5587 5595 5601 5604 5610 5614 5618 5623 5629 5632 5635 5638 5642
5547 5541 5535 5531 5526 5520 5515 5509 5503 5497 5493 5492 5491 5491 5488 5486 5487 5488 5491 5496 5506 5516 5524 5531 5537 5544 5548 5556 5564 5573 5580 5586 5592 5598 5604 5608 5612 5617 5622 5625 5627 5629 5632
5534 5528 5523 5517 5511 5505 5499 5495 5490 5485 5481 5479 5479 5479 5478 5478 5480 5481 5484 5490 5499 5508 5515 5523 5530 5534 5540 5548 5556 5563 5572 5578 5585 5593 5600 5604 5608 5610 5614 5616 5618 5623 5626
5522 5516 5510 5504 5497 5491 5484 5480 5475 5471 5468 5467 5467 5468 5468 5470 5472 5475 5479 5484 5491 5500 5508 5515 5522 5528 5535 5541 5548 5556 5563 5574 5583 5588 5594 5598 5603 5606 5608 5611 5614 5618 5622
5512 5505 5497 5491 5484 5475 5468 5463 5460 5456 5454 5454 5455 5457 5459 5461 5464 5468 5473 5479 5485 5493 5501 5508 5514 5521 5530 5535 5544 5553 5562 5569 5577 5583 5587 5593 5600 5601 5604 5607 5609 5613 5616
5503 5493 5484 5477 5470 5461 5454 5447 5441 5440 5440 5440 5441 5445 5449 5452 5456 5461 5467 5473 5480 5486 5493 5502 5508 5516 5526 5534 5540 5548 5555 5564 5573 5578 5585 5591 5594 5598 5600 5604 5607 5610 5612
5492 5484 5474 5465 5456 5448 5441 5434 5429 5427 5428 5429 5430 5433 5438 5442 5447 5454 5462 5468 5473 5479 5487 5495 5502 5510 5520 5529 5537 5544 5553 5562 5567 5572 5580 5587 5591 5593 5595 5598 5602 5605 5606
5485 5475 5465 5455 5445 5438 5432 5426 5421 5417 5417 5419 5420 5424 5427 5434 5437 5445 5454 5461 5467 5473 5481 5489 5497 5505 5515 5524 5533 5540 5548 5557 5562 5569 5576 5582 5587 5589 5592 5594 5599 5602 5603
5477 5467 5457 5446 5436 5430 5423 5415 5410 5407 5406 5407 5410 5413 5418 5423 5428 5436 5445 5454 5461 5467 5476 5483 5493 5502 5511 5521 5529 5536 5544 5551 5559 5567 5575 5578 5583 5586 5590 5591 5595 5598 5600
5472 5461 5450 5438 5430 5423 5414 5406 5401 5397 5395 5394 5397 5401 5407 5414 5420 5427 5436 5447 5457 5464 5472 5481 5489 5499 5509 5517 5525 5533 5540 5548 5557 5564 5570 5575 5578 5581 5586 5588 5591 5594 5596
5468 5456 5445 5436 5426 5415 5407 5400 5393 5387 5383 5383 5386 5391 5397 5405 5412 5421 5431 5443 5452 5460 5468 5476 5486 5495 5504 5513 5521 5529 5536 5543 5550 5558 5565 5571 5572 5576 5582 5584 5586 5589 5591
5466 5455 5444 5433 5422 5412 5402 5393 5386 5377 5372 5371 5375 5383 5391 5398 5406 5416 5425 5435 5444 5454 5463 5472 5481 5490 5500 5509 5517 5524 5531 5538 5545 5553 5559 5565 5567 5573 5577 5580 5582 5584 5587
5465 5454 5443 5432 5421 5410 5399 5390 5381 5372 5367 5367 5370 5377 5386 5395 5403 5412 5421 5430 5438 5447 5456 5465 5476 5485 5495 5504 5512 5520 5527 5534 5541 5549 5555 5560 5563 5569 5573 5575 5577 5581 5582
5465 5455 5444 5433 5421 5410 5400 5391 5382 5373 5369 5368 5371 5378 5386 5394 5402 5411 5418 5427 5435 5444 5451 5460 5470 5480 5491 5501 5510 5517 5525 5532 5539 5544 5551 5557 5559 5564 5568 5571 5574 5576 5577
5467 5457 5447 5437 5425 5414 5405 5396 5388 5382 5378 5378 5380 5385 5391 5397 5404 5412 5419 5425 5433 5441 5449 5458 5468 5477 5487 5497 5505 5514 5521 5527 5534 5541 5548 5552 5555 5561 5564 5567 5571 5571 5570
5472 5462 5452 5442 5432 5421 5412 5404 5397 5394 5392 5391 5393 5395 5399 5403 5408 5414 5419 5425 5432 5439 5447 5456 5465 5474 5483 5491 5501 5509 5517 5524 5530 5538 5544 5548 5552 5558 5561 5563 5566 5567 5567
5476 5468 5457 5447 5438 5429 5419 5412 5406 5403 5401 5400 5401 5402 5404 5408 5412 5417 5422 5428 5433 5438 5445 5453 5461 5470 5478 5488 5496 5505 5514 5521 5529 5536 5540 5546 5550 5554 5558 5561 5560 5562 5562
Wind_Speed
64 60 57 59 63 66 69 65 64 68 75 75 74 73 72 73 74 74 74 75 75 74 72 70 64 54 57 55 54 51 50 50 49 43 40 41 44 50 56 50 42 29 31
59 60 65 65 66 65 65 67 69 72 74 74 74 73 74 74 74 74 76 77 77 77 76 73 68 60 58 56 53 51 49 46 43 42 42 38 38 40 52 45 43 34 36
64 64 66 68 70 72 74 75 76 76 72 71 71 73 71 71 72 72 75 75 73 73 72 73 69 60 54 51 50 49 47 43 40 37 37 31 33 36 32 32 34 39 37
67 70 71 72 72 73 74 75 75 72 70 67 66 67 69 68 68 68 70 71 73 71 67 68 65 59 55 48 46 47 47 44 36 36 35 32 32 42 38 33 35 39 41
70 72 75 78 78 77 79 73 69 66 67 65 66 67 66 70 72 70 70 66 67 68 65 61 61 56 50 47 41 44 43 42 38 39 35 35 38 39 40 39 37 40 38
72 77 73 71 71 69 68 66 65 66 67 68 66 68 67 68 71 77 69 65 62 65 58 54 55 51 46 45 45 45 44 39 39 41 37 41 39 39 43 41 39 37 31
62 60 60 61 61 61 61 64 68 71 70 71 72 69 69 69 67 68 66 60 59 57 55 48 47 44 43 42 43 38 40 38 39 40 43 38 38 41 36 42 40 40 40
49 50 52 52 55 61 68 72 72 71 69 69 66 67 64 65 63 61 61 59 53 50 45 42 42 41 40 39 37 34 36 36 35 34 42 43 43 37 32 35 36 39 42
44 45 48 55 61 62 61 63 64 63 66 64 58 54 54 54 53 53 54 49 46 44 41 38 42 39 40 40 46 40 42 35 36 41 38 41 33 37 40 39 39 38 45
46 51 53 52 45 42 45 44 43 45 46 44 41 41 41 35 38 42 44 42 42 39 35 31 37 36 39 39 43 42 40 40 38 34 34 37 36 32 30 29 29 29 32
46 45 42 45 44 41 43 41 39 39 39 38 36 35 32 27 29 33 35 35 36 37 36 30 30 37 42 45 44 49 47 39 30 30 30 28 27 30 32 28 28 28 26
37 40 46 49 50 47 48 42 44 44 37 36 36 33 30 28 28 30 30 30 33 38 34 31 28 26 34 48 51 47 37 35 31 32 29 27 27 26 27 25 24 23 22
41 43 48 46 46 48 46 45 41 40 39 37 35 33 28 28 27 27 27 27 33 36 33 30 24 31 32 39 39 38 40 36 35 31 24 21 22 22 22 23 23 22 23
36 41 42 41 45 45 41 38 42 45 42 38 36 34 30 29 29 28 29 29 32 33 33 28 31 40 40 36 39 41 37 36 35 29 25 22 22 22 20 19 19 20 21
40 43 44 44 46 49 47 47 42 37 34 36 35 33 32 30 30 30 30 28 29 32 36 32 39 52 43 39 38 39 35 32 32 30 28 26 24 21 19 17 17 19 20
38 42 37 40 41 37 34 31 31 33 32 32 26 31 33 33 33 31 30 27 25 29 34 36 39 47 44 36 34 35 31 36 34 32 31 25 21 19 18 14 12 14 17
37 39 37 41 39 31 29 28 27 26 30 29 31 28 32 34 36 34 33 32 26 29 36 38 42 41 36 35 36 33 33 37 36 36 30 25 23 23 19 15 10 11 14
38 41 39 42 36 30 32 30 29 30 30 35 37 32 32 35 37 35 34 35 29 28 34 33 46 45 48 38 38 34 34 36 39 36 31 29 27 24 21 15 11 10 10
40 39 41 36 28 31 31 27 25 24 25 28 31 32 38 33 36 39 37 35 32 30 35 34 42 44 46 42 37 38 38 41 39 37 36 33 29 24 21 14 11 12 13
37 38 37 32 33 31 30 25 24 23 24 27 28 24 33 36 36 33 38 36 34 35 36 38 41 41 40 42 40 38 40 38 40 40 38 31 26 22 20 17 14 15 16
36 35 36 37 35 31 29 24 26 24 17 18 23 27 29 31 35 31 30 34 36 40 42 46 46 41 42 41 38 34 34 38 43 42 36 31 25 20 18 18 20 19 16
35 36 36 37 34 32 26 25 28 19 11 8 11 23 30 28 33 34 31 36 39 42 44 47 47 44 43 39 36 35 34 33 34 34 30 27 25 23 23 24 25 18 18
35 36 38 39 34 32 28 28 27 18 8 4 12 22 31 32 27 32 27 34 39 42 44 47 48 47 46 42 37 37 36 37 37 34 29 30 27 26 23 22 22 20 21
38 35 38 40 37 32 31 25 25 21 19 15 17 17 18 21 28 30 27 35 34 35 41 44 49 48 45 45 41 39 39 36 35 31 34 31 30 25 20 20 21 23 28
36 39 35 37 38 34 30 28 22 18 17 17 18 17 13 16 22 30 29 32 33 33 36 37 43 50 51 48 43 40 41 39 40 39 35 32 29 23 22 21 23 28 30
33 37 41 34 37 36 33 27 25 21 15 10 11 10 13 20 24 27 27 24 24 27 32 37 37 43 47 45 43 45 41 40 41 39 35 30 29 25 23 22 26 33 21
Wind_Direction
277 272 272 275 272 274 277 278 279 279 280 280 279 277 275 273 273 273 271 270 270 269 269 269 266 262 265 265 268 269 271 272 274 275 276 268 271 265 258 253 257 256 262
266 270 270 272 274 275 277 278 277 278 278 277 275 273 273 272 271 269 269 269 268 266 267 266 265 265 266 268 266 269 269 269 271 270 275 273 266 265 243 232 243 251 258
272 274 274 274 274 276 278 280 280 280 279 278 278 278 277 276 273 271 272 270 268 267 266 265 264 261 262 264 263 264 265 265 263 264 266 263 248 231 220 227 239 249 255
274 274 276 277 278 280 280 279 279 279 278 277 276 276 278 277 276 273 270 268 268 267 264 263 263 262 258 255 255 257 259 259 257 252 251 253 244 241 228 233 241 248 252
278 279 281 281 281 280 280 280 280 278 278 277 275 274 274 277 278 276 272 269 265 263 262 261 260 259 257 255 254 252 253 253 254 247 244 240 237 239 242 235 242 248 243
277 280 280 279 280 279 280 280 278 275 275 276 275 277 274 273 275 275 268 264 261 260 256 253 255 253 249 245 247 246 249 253 247 242 237 240 239 247 243 235 242 244 256
275 278 278 277 276 277 275 274 275 277 277 276 278 278 279 275 271 269 264 258 258 258 255 247 246 246 246 244 243 244 245 240 244 243 237 238 239 236 237 236 238 250 263
279 277 275 277 277 277 278 277 276 275 273 274 277 280 280 279 270 261 256 256 253 253 247 243 242 239 239 235 230 233 236 233 238 234 238 229 235 239 245 251 257 257 259
277 280 280 279 280 281 282 281 279 278 276 277 277 277 282 278 267 253 252 253 246 244 239 237 236 236 234 231 229 233 232 229 216 228 230 230 234 239 240 243 250 252 253
281 282 283 283 282 290 294 293 290 286 282 278 274 277 281 277 264 262 257 249 237 231 229 226 228 224 230 221 225 225 222 212 218 219 229 236 241 243 243 246 254 257 256
289 286 279 282 283 284 287 291 288 293 286 279 269 276 276 270 259 250 246 242 232 220 224 227 225 224 232 219 209 208 214 208 211 221 225 227 233 234 235 243 246 249 250
289 283 282 289 284 277 285 279 285 287 286 279 269 269 267 255 253 247 245 236 228 215 220 224 220 214 223 194 205 203 196 201 202 201 211 214 219 223 232 232 235 239 238
293 294 292 294 292 291 284 281 280 282 280 275 265 260 258 248 244 243 236 224 216 215 221 223 220 211 214 192 194 196 193 197 199 202 210 211 222 221 225 228 230 233 237
311 304 302 290 287 287 284 292 286 278 274 274 262 254 246 242 240 230 227 219 215 216 218 210 207 195 200 189 191 204 196 195 199 199 198 206 209 211 219 230 240 240 240
311 304 298 290 297 304 299 293 290 270 271 262 261 247 243 233 232 226 221 217 216 217 217 208 206 193 195 185 189 197 192 195 200 199 204 200 197 204 210 220 235 243 245
330 318 317 313 311 308 306 299 293 267 263 262 261 243 238 228 228 227 220 213 220 217 208 211 208 180 184 193 195 197 193 193 195 201 202 201 200 204 212 218 227 240 244
333 327 326 322 317 312 310 302 292 272 256 258 252 242 238 232 226 227 221 217 217 213 204 209 205 195 195 193 195 198 199 192 195 200 205 205 209 208 211 216 220 238 247
336 332 331 327 322 315 317 305 292 276 264 254 241 248 234 229 227 224 218 216 214 210 206 206 209 199 204 197 199 200 191 191 197 200 204 208 211 209 213 224 225 231 250
338 340 338 334 333 332 327 318 305 291 272 259 250 244 224 220 224 226 219 213 213 206 205 202 192 193 198 195 199 207 203 203 206 204 207 209 203 203 215 223 232 249 262
346 348 349 345 335 335 331 325 312 301 277 254 244 232 217 209 219 224 220 211 206 202 200 193 194 196 200 199 199 204 203 204 208 210 214 210 202 203 219 234 242 252 269
353 350 348 352 351 343 338 335 333 322 291 257 237 223 208 210 210 206 200 199 200 199 197 198 201 202 199 199 200 200 206 209 207 209 209 210 205 204 221 237 242 255 280
355 357 356 354 353 353 353 351 348 344 329 242 217 200 195 200 199 203 206 196 193 194 198 198 202 203 201 200 198 200 206 202 200 207 212 216 209 220 229 233 245 262 279
6 6 7 4 4 5 6 11 11 9 17 123 158 173 187 193 197 191 197 194 194 192 196 197 199 202 202 198 196 200 205 208 207 203 213 217 215 217 226 240 249 260 274
12 11 12 12 11 14 17 17 32 45 67 98 130 147 161 175 182 186 187 194 195 197 197 197 199 201 200 202 205 201 204 210 207 205 209 212 222 224 231 249 254 259 272
12 13 12 18 17 15 21 28 40 60 69 99 123 130 140 168 177 181 185 185 190 195 196 195 197 199 204 207 206 202 199 206 206 208 211 217 224 233 246 258 250 256 259
17 13 5 23 26 24 26 33 45 59 72 90 117 137 157 157 163 167 177 186 195 201 198 195 196 197 201 202 201 199 196 202 203 206 211 217 224 235 246 244 251 261 193